Location: Colossi of Memnon
(25.7167°N, 32.6167°E)
Time: 21:38:36
(UTC+00:00)

Envisat - Pass Details

Date: 19 September 2021
Orbit: 764 x 766 km, 98.2° (Epoch: 15 October)

Event Time Altitude Azimuth Distance (km) Brightness Sun altitude
Rises 02:44:58 0° 13° (NNE) 3,228 6.5 -12.5°
Reaches altitude 10° 02:47:16 10° 15° (NNE) 2,300 5.8 -12.0°
Maximum altitude 02:52:21 78° 102° (ESE) 782 3.2 -10.8°
Drops below altitude 10° 02:57:23 10° 189° (S) 2,289 5.3 -9.7°
Sets 02:59:41 0° 190° (S) 3,212 6.1 -9.2°
